Colorado City, AZ

12:06 AM MST on November 20, 2019 (GMT -0700)
Colorado City Municipal

Weather History for KAZC - September, 2019

Change the Weather History Date:

Sunday, September 1, 2019

  Actual Average (WUND) Record (WUND)
Temperature  
Mean Temperature 76 °F -  
Max Temperature 100 °F - - (-1)
Min Temperature 51 °F - - (-1)
Cooling Degree Days 10    
Growing Degree Days 26 (Base 50)    
Moisture  
Dew Point 32 °F    
Average Humidity 22    
Maximum Humidity 41    
Minimum Humidity 9    
Precipitation  
Precipitation 0.00 in - - ()
Sea Level Pressure  
Sea Level Pressure 30.18 in    
Wind  
Wind Speed 5 mph (South)    
Max Wind Speed 13 mph    
Max Gust Speed 20 mph    
Visibility 10 miles    
Events      
Averages and records for this station are not official NWS values.
T = Trace of Precipitation, MM = Missing Value Source: NWS Daily Summary

Daily Weather History Graph

Daily Weather History Graph

Search for Another Location

Airport or City:

Astronomy

Sep. 01, 2019 Rise Set
Actual Time 6:02 AM MST 7:00 PM MST
Civil Twilight 5:36 AM MST 7:27 PM MST
Nautical Twilight 5:04 AM MST 7:58 PM MST
Astronomical Twilight 4:32 AM MST 8:31 PM MST
Moon 8:34 AM MST (9/1) 8:54 PM MST (9/1)
Length of Visible Light 13h 51m
Length of Day
12h 57m
Waxing Crescent, 8% of the Moon is Illuminated
Sep 1
Waxing Crescent
Sep 5
First Quarter
Sep 13
Full
Sep 21
Last Quarter
Sep 28
New

Hourly Weather History & Observations

Time (MST) Temp. Dew Point Humidity Pressure Visibility Wind Dir Wind Speed Gust Speed Precip Events Conditions
12:15 AM 57.2 °F 30.2 °F 36% 30.16 in - SE 4.6 mph - N/A   Clear
12:35 AM 59.0 °F 30.2 °F 34% 30.16 in - ESE 3.5 mph - N/A   Clear
12:55 AM 55.4 °F 30.2 °F 38% 30.16 in - SE 5.8 mph - N/A   Clear
1:15 AM 55.4 °F 30.2 °F 38% 30.17 in - SSE 4.6 mph - N/A   Clear
1:35 AM 57.2 °F 30.2 °F 36% 30.17 in - SE 4.6 mph - N/A   Clear
1:55 AM 55.4 °F 28.4 °F 36% 30.17 in - SSE 3.5 mph - N/A   Clear
2:15 AM 55.4 °F 28.4 °F 36% 30.17 in - South 4.6 mph - N/A   Clear
2:35 AM 55.4 °F 28.4 °F 36% 30.17 in - SE 8.1 mph - N/A   Clear
2:55 AM 59.0 °F 28.4 °F 31% 30.17 in - East 8.1 mph - N/A   Clear
3:15 AM 59.0 °F 28.4 °F 31% 30.18 in - Calm Calm - N/A   Clear
3:35 AM 57.2 °F 28.4 °F 33% 30.18 in - Calm Calm - N/A   Clear
3:55 AM 53.6 °F 28.4 °F 38% 30.18 in - ESE 4.6 mph - N/A   Clear
4:15 AM 53.6 °F 28.4 °F 38% 30.18 in - Calm Calm - N/A   Clear
4:35 AM 53.6 °F 28.4 °F 38% 30.18 in - SSE 3.5 mph - N/A   Clear
4:55 AM 51.8 °F 28.4 °F 41% 30.19 in - SE 5.8 mph - N/A   Clear
5:15 AM 55.4 °F 28.4 °F 36% 30.19 in - SSE 3.5 mph - N/A   Clear
5:35 AM 53.6 °F 28.4 °F 38% 30.19 in - SE 5.8 mph - N/A   Clear
5:55 AM 53.6 °F 28.4 °F 38% 30.20 in 10.0 mi SSE 4.6 mph - N/A   Clear
6:15 AM 53.6 °F 28.4 °F 38% 30.20 in 10.0 mi ESE 4.6 mph - N/A   Clear
6:35 AM 55.4 °F 30.2 °F 38% 30.20 in 10.0 mi SE 5.8 mph - N/A   Clear
6:55 AM 60.8 °F 32.0 °F 34% 30.21 in 10.0 mi ESE 3.5 mph - N/A   Clear
7:15 AM 64.4 °F 32.0 °F 30% 30.22 in 10.0 mi SE 3.5 mph - N/A   Clear
7:35 AM 69.8 °F 32.0 °F 25% 30.22 in 10.0 mi SE 3.5 mph - N/A   Clear
7:55 AM 73.4 °F 32.0 °F 22% 30.23 in 10.0 mi Calm Calm - N/A   Clear
8:15 AM 77.0 °F 32.0 °F 19% 30.23 in 10.0 mi Calm Calm - N/A   Clear
8:35 AM 80.6 °F 32.0 °F 17% 30.23 in 10.0 mi Calm Calm - N/A   Clear
8:55 AM 86.0 °F 32.0 °F 14% 30.23 in 10.0 mi Calm Calm - N/A   Clear
9:15 AM 87.8 °F 32.0 °F 14% 30.23 in 10.0 mi East 3.5 mph - N/A   Clear
9:35 AM 89.6 °F 32.0 °F 13% 30.23 in 10.0 mi Calm Calm - N/A   Clear
9:55 AM 91.4 °F 32.0 °F 12% 30.23 in 10.0 mi Calm Calm - N/A   Clear
10:15 AM 91.4 °F 32.0 °F 12% 30.23 in 10.0 mi Calm Calm - N/A   Clear
10:35 AM 93.2 °F 32.0 °F 11% 30.23 in 10.0 mi WSW 5.8 mph - N/A   Clear
10:55 AM 95.0 °F 32.0 °F 11% 30.23 in 10.0 mi Calm Calm - N/A   Clear
11:15 AM 95.0 °F 32.0 °F 11% 30.23 in 10.0 mi SW 9.2 mph - N/A   Clear
11:35 AM 96.8 °F 32.0 °F 10% 30.22 in 10.0 mi SSW 9.2 mph - N/A   Clear
11:55 AM 96.8 °F 32.0 °F 10% 30.22 in 10.0 mi South 4.6 mph - N/A   Clear
12:15 PM 98.6 °F 32.0 °F 10% 30.21 in 10.0 mi Calm Calm - N/A   Clear
12:35 PM 96.8 °F 32.0 °F 10% 30.20 in 10.0 mi Calm Calm - N/A   Clear
12:55 PM 98.6 °F 33.8 °F 10% 30.20 in 10.0 mi NW 6.9 mph - N/A   Clear
1:15 PM 98.6 °F 33.8 °F 10% 30.19 in 10.0 mi West 8.1 mph 18.4 mph N/A   Clear
1:35 PM 98.6 °F 33.8 °F 10% 30.19 in 10.0 mi WNW 10.4 mph - N/A   Clear
1:55 PM 100.4 °F 33.8 °F 10% 30.18 in 10.0 mi West 12.7 mph 16.1 mph N/A   Clear
2:15 PM 100.4 °F 33.8 °F 10% 30.17 in 10.0 mi West 12.7 mph - N/A   Clear
2:35 PM 100.4 °F 32.0 °F 9% 30.17 in 10.0 mi WNW 11.5 mph 16.1 mph N/A   Clear
2:55 PM 100.4 °F 32.0 °F 9% 30.16 in 10.0 mi NW 9.2 mph - N/A   Clear
3:15 PM 100.4 °F 32.0 °F 9% 30.15 in 10.0 mi NNW 6.9 mph 18.4 mph N/A   Clear
3:55 PM 100.4 °F 33.8 °F 10% 30.14 in 10.0 mi WNW 9.2 mph 19.6 mph N/A   Clear
4:15 PM 100.4 °F 33.8 °F 10% 30.13 in 10.0 mi NW 11.5 mph - N/A   Clear
4:35 PM 98.6 °F 33.8 °F 10% 30.13 in 10.0 mi NNW 11.5 mph - N/A   Clear
4:55 PM 98.6 °F 33.8 °F 10% 30.13 in 10.0 mi West 6.9 mph - N/A   Clear
5:15 PM 98.6 °F 33.8 °F 10% 30.13 in 10.0 mi WNW 9.2 mph - N/A   Clear
5:35 PM 96.8 °F 32.0 °F 10% 30.13 in 10.0 mi West 10.4 mph - N/A   Clear
5:55 PM 96.8 °F 32.0 °F 10% 30.12 in 10.0 mi West 8.1 mph - N/A   Clear
6:15 PM 95.0 °F 32.0 °F 11% 30.12 in 10.0 mi WNW 6.9 mph - N/A   Clear
6:35 PM 93.2 °F 32.0 °F 11% 30.12 in 10.0 mi WNW 6.9 mph - N/A   Clear
6:55 PM 89.6 °F 32.0 °F 13% 30.13 in 10.0 mi NW 4.6 mph - N/A   Clear
7:15 PM 87.8 °F 32.0 °F 14% 30.13 in 10.0 mi NNW 3.5 mph - N/A   Clear
7:35 PM 86.0 °F 32.0 °F 14% 30.13 in 10.0 mi NNW 4.6 mph - N/A   Clear
7:55 PM 82.4 °F 32.0 °F 16% 30.15 in - NNW 5.8 mph - N/A   Clear
8:15 PM 78.8 °F 32.0 °F 18% 30.15 in - Calm Calm - N/A   Clear
8:35 PM 71.6 °F 32.0 °F 23% 30.15 in - Calm Calm - N/A   Clear
8:55 PM 78.8 °F 32.0 °F 18% 30.15 in 10.0 mi Calm Calm - N/A   Clear
9:15 PM 71.6 °F 33.8 °F 25% 30.16 in - North 4.6 mph - N/A   Clear
9:35 PM 77.0 °F 32.0 °F 19% 30.16 in - NNW 4.6 mph - N/A   Clear
9:55 PM 73.4 °F 35.6 °F 25% 30.17 in 10.0 mi North 4.6 mph - N/A   Clear
10:15 PM 68.0 °F 37.4 °F 33% 30.17 in 10.0 mi East 3.5 mph - N/A   Clear
10:35 PM 64.4 °F 33.8 °F 32% 30.17 in - ESE 3.5 mph - N/A   Clear
10:55 PM 68.0 °F 35.6 °F 30% 30.18 in - ESE 6.9 mph - N/A   Clear
11:15 PM 68.0 °F 32.0 °F 26% 30.18 in - Calm Calm - N/A   Clear
11:35 PM 68.0 °F 32.0 °F 26% 30.18 in - ESE 3.5 mph - N/A   Clear
11:55 PM 62.6 °F 33.8 °F 34% 30.19 in - SE 5.8 mph - N/A   Clear